Location: Ariel
(45.9570°N, 122.5700°W)
Time: 09:35:10
(UTC-07:00)

Vanguard 3 - Pass Details

Date: 29 August 2019
Orbit: 508 x 3262 km, 33.3° (Epoch: 15 October)

Event Time Altitude Azimuth Distance (km) Brightness Sun altitude
Rises 13:24:46 0° 202° (SSW) 6,952 12.4 53.2°
Reaches altitude 10° 13:32:01 10° 187° (S) 5,538 12.2 53.0°
Maximum altitude 13:40:52 18° 153° (SSE) 4,225 11.5 52.7°
Drops below altitude 10° 13:47:43 10° 117° (ESE) 4,150 11.0 52.4°
Sets 13:51:54 0° 98° (E) 4,665 11.0 52.2°
